STARLINK-1653, 46352

Orbit data source: Space-Track

STARLINK-1653, 46352 is a payload satellite owned by SpaceX/Seattle (US) in LEO that was launched on Thu, 03 Sep 2020 UTC via an FALCON 9 launch vehicle from the Air Force Eastern Test Range (AFETR). Payloads include a variety of satellites, spacecraft, and rockets equipped with specific instruments for various scientific and technological missions. These include communications satellites like Starlink; space stations such as the ISS; scientific satellites like the Hubble; Earth observation satellites from companies like Planet Labs, Umbra, and HawkEye 360; GPS; miniature CubeSats for education and research; and military/defense satellites.

Loading next visibility...
STARLINK-1653 details
Identifier
46352, 2020-062AD
Orbit
LEO
Last TLE update1 day ago
Origin
Flag of USSpaceX/Seattle (US)
ManufacturerSpaceX/Seattle
MissionOperational Commercial Communications
Bus & MotorSTARLINK, Unknown motor
Mass260 kg wet, ~248 kg dry
Launch date (UTC)
2020-09-03 (4 years ago)
Launch vehicle
FALCON 9
Launch site
Air Force Eastern Test Range (AFETR)
Object type
Payload
Rocket body
Debris
Shape & HBRBox + 1 Pan, 8.86 m
Radar Cross Section13.562 m², Large (>1 m²)

Expand to show TLE details & history

TLE from 1 day ago
0 STARLINK-1653
1 46352U 20062AD  25023.32261235  .00007945  00000-0  55154-3 0  9994
2 46352  53.0573  38.8196 0003363  91.8238 268.3137 15.06407178242744
Epoch: 2025-01-23T07:44Z
Definitive object data (Epoch: 2025-01-23T07:44:33.707Z)
Latitude0.00006°
Longitude159.77741°
Altitude548.138 km
Speed7.589 km/s
True Right ascension02h 35m 16s
True Declination0° 00' 00"
Sunlit
Object was in daylight at TLE epoch
Visualization TLE readout
Latitude52.63988°
Longitude-104.36526°
Altitude551.221 km
Speed7.594 km/s
Apparent Right ascension06h 05m 55s
Apparent Declination11° 22' 03"
Sunlit
Object is in full shadow
Visualization observer readout
Local Sidereal Time15:41:40
Azimuth318.819° NNW
Elevation-28.775°
Doppler factor1
Orbital elements
Apogee altitude549.789 km
Perigee altitude545.131 km
Semi-major axis6,925.597 km
Eccentricity0.0003363
Inclination53.0573°
RAAN38.8196°
Arg. of periapsis91.8238°
True anomaly268.27518°
Mean anomaly268.3137°
Eccentric anomaly268.29444°
Mean motion3.7658 °/min
BSTAR0.00055154
Orbital period95.6 mins
Loading maneuver chart data...
Loading historical data...
Loading historical data...
Loading historical data...
Loading historical data...
Loading historical data...
Loading historical data...
Loading historical data...

STARLINK-1653 Visibility forecast

Observer location: undefined°, undefined

Span
Click to sort rows by Start time (UTC) header in descending order
Start Az.
Max El. time (UTC)
Max El. Az.
Max El.
End time (UTC)
End Az.
7 mins2025-01-25 02:53:29.849Z214.09° SW2025-01-25 02:57:29.849Z125.108° SE39.97°2025-01-25 03:00:29.849Z60.159° ENE
5 mins2025-01-25 04:35:29.849Z297.453° NW2025-01-25 04:37:29.849Z344.381° N23.767°2025-01-25 04:40:29.849Z31.994° NE
6 mins2025-01-25 09:36:29.849Z323.867° NNW2025-01-25 09:38:29.849Z12.54° NNE39.549°2025-01-25 09:42:29.849Z115.232° SE
4 mins2025-01-25 11:16:29.849Z260.67° W2025-01-25 11:18:29.849Z222.532° SW18.09°2025-01-25 11:20:29.849Z190.687° SSW
|